Flight Track Log - Related Links

Times and Time Zones

All times are in EST time to prevent confusion due to time zone crossing. See the ASQ4537 flight status page for this flight to view local times or setup timezone preferences in your user account.

Time Position Orientation Groundspeed Altitude Reporting Facility
EST Latitude Longitude Course Direction KTS MPH feet Rate Location/Type
Thu 12:16:12 PM 34.9833 -89.9667 180° South 172 198 2,500  Level KMEM
Thu 12:17:12 PM 34.9333 -89.9333 151° Southeast 256 295 4,000 1,750 Climbing KMEM
Thu 12:18:12 PM 34.9333 -89.8333 90° East 296 341 6,000 2,064 Climbing KMEM
Thu 12:19:17 PM 34.9844 -89.7575 51° Northeast 293 337 8,300 1,937 Climbing Memphis Center
Thu 12:20:00 PM 35.3276 -89.3448 31° Northeast  Level Estimated
Thu 12:20:19 PM 35.0658 -89.7272 17° North 301 346 10,100  Level Memphis Center
Thu 12:21:21 PM 35.1528 -89.6956 17° North 316 364 11,200 878 Climbing Memphis Center
Thu 12:22:22 PM 35.2500 -89.6597 17° North 353 406 11,900 1,024 Climbing Memphis Center
Thu 12:23:24 PM 35.3536 -89.6217 17° North 377 434 13,300 1,597 Climbing Memphis Center
Thu 12:24:26 PM 35.4536 -89.5847 17° North 374 430 15,200 1,645 Climbing Memphis Center
Thu 12:25:28 PM 35.5536 -89.5483 16° North 371 427 16,700 1,210 Climbing Memphis Center
Thu 12:26:30 PM 35.6544 -89.5094 17° North 374 430 17,700 823 Climbing Memphis Center
Thu 12:27:32 PM 35.7628 -89.4308 30° Northeast 394 453 18,400 823 Climbing Memphis Center
Thu 12:28:34 PM 35.8594 -89.3592 31° Northeast 404 465 19,400 1,016 Climbing Memphis Center
Thu 12:29:36 PM 35.9586 -89.2847 31° Northeast 414 476 20,500 1,016 Climbing Memphis Center
Thu 12:30:38 PM 36.0586 -89.2089 32° Northeast 422 486 21,500 976 Climbing Memphis Center
Thu 12:31:39 PM 36.1611 -89.1317 31° Northeast 431 496 22,500 1,122 Climbing Memphis Center
Thu 12:32:41 PM 36.2844 -89.0381 31° Northeast 437 503 23,800 1,113 Climbing Memphis Center
Thu 12:33:43 PM 36.3881 -88.9600 31° Northeast 440 506 24,800 1,016 Climbing Memphis Center
Thu 12:34:45 PM 36.4914 -88.8811 32° Northeast 440 506 25,900 1,161 Climbing Memphis Center
Thu 12:35:47 PM 36.5933 -88.8047 31° Northeast 435 501 27,200 1,210 Climbing Memphis Center
Thu 12:36:49 PM 36.6933 -88.7283 31° Northeast 426 490 28,400 1,306 Climbing Memphis Center
Thu 12:37:51 PM 36.8131 -88.6361 32° Northeast 422 486 29,900 1,258 Climbing Memphis Center
Thu 12:38:53 PM 36.9111 -88.5600 32° Northeast 418 481 31,000 1,016 Climbing Memphis Center
Thu 12:39:55 PM 37.0092 -88.4842 32° Northeast 415 478 32,000 774 Climbing Memphis Center
Thu 12:40:57 PM 37.1086 -88.4072 32° Northeast 418 481 32,600 634 Climbing Memphis Center
Thu 12:41:58 PM 37.2106 -88.3275 32° Northeast 427 491 33,300 829 Climbing Memphis Center
Thu 12:43:00 PM 37.3133 -88.2469 32° Northeast 434 499 34,300 823 Climbing Memphis Center
Thu 12:44:02 PM 37.4150 -88.1686 31° Northeast 430 495 35,000 339 Climbing Memphis Center
Thu 12:45:04 PM 37.5200 -88.0319 46° Northeast 461 531 35,000  Level Memphis Center
Thu 12:46:06 PM 37.6044 -87.9017 51° Northeast 475 547 35,000  Level Memphis Center
Thu 12:47:08 PM 37.6922 -87.7672 50° Northeast 489 563 35,000  Level Memphis Center
Thu 12:48:10 PM 37.7822 -87.6242 51° Northeast 504 580 35,000  Level Memphis Center
Thu 12:49:11 PM 37.8747 -87.4786 51° Northeast 519 597 35,000  Level Memphis Center
Thu 12:50:33 PM 37.9953 -87.2883 51° Northeast 524 603 35,000  Level Indianapolis Center
Thu 12:51:35 PM 38.0850 -87.1458 51° Northeast 521 600 35,000  Level Indianapolis Center
Thu 12:52:36 PM 38.1897 -86.9778 52° Northeast 514 592 35,000  Level Indianapolis Center
Thu 12:53:38 PM 38.2758 -86.8389 52° Northeast 512 589 35,000  Level Indianapolis Center
Thu 12:54:40 PM 38.3642 -86.6964 52° Northeast 516 594 35,000  Level Indianapolis Center
Thu 12:55:41 PM 38.4372 -86.5339 60° Northeast 527 606 35,000  Level Indianapolis Center
Thu 12:56:43 PM 38.5111 -86.3714 60° Northeast 529 609 35,000  Level Indianapolis Center
Thu 12:57:45 PM 38.5853 -86.2092 60° Northeast 527 606 35,000  Level Indianapolis Center
Thu 12:58:46 PM 38.6589 -86.0472 60° Northeast 526 605 35,000  Level Indianapolis Center
Thu 12:59:48 PM 38.7344 -85.8861 59° Northeast 517 595 35,000  Level Indianapolis Center
Thu 01:00:50 PM 38.8211 -85.6989 59° Northeast 514 592 35,000  Level Indianapolis Center
Thu 01:01:51 PM 38.8942 -85.5461 58° Northeast 510 587 35,000  Level Indianapolis Center
Thu 01:02:53 PM 38.9686 -85.3875 59° Northeast 517 595 35,000  Level Indianapolis Center
Thu 01:03:55 PM 39.0436 -85.2281 59° Northeast 516 594 35,000  Level Indianapolis Center
Thu 01:04:57 PM 39.1175 -85.0756 58° Northeast 517 595 35,000  Level Indianapolis Center
Thu 01:05:58 PM 39.2061 -84.9342 51° Northeast 511 588 35,000  Level Indianapolis Center
Thu 01:07:00 PM 39.3139 -84.7669 50° Northeast 509 586 35,000  Level Indianapolis Center
Thu 01:08:02 PM 39.4022 -84.6275 51° Northeast 507 583 35,000  Level Indianapolis Center
Thu 01:09:04 PM 39.4911 -84.4892 50° Northeast 504 580 35,000  Level Indianapolis Center
Thu 01:10:05 PM 39.5783 -84.3492 51° Northeast 503 579 35,000  Level Indianapolis Center
Thu 01:11:07 PM 39.6647 -84.2111 51° Northeast 498 573 35,000  Level Indianapolis Center
Thu 01:12:09 PM 39.7519 -84.0722 51° Northeast 497 572 35,000  Level Indianapolis Center
Thu 01:13:11 PM 39.8542 -83.9067 51° Northeast 493 567 35,000  Level Indianapolis Center
Thu 01:14:13 PM 39.9414 -83.7625 52° Northeast 500 575 35,000  Level Indianapolis Center
Thu 01:15:14 PM 40.0347 -83.6125 51° Northeast 505 581 35,000  Level Indianapolis Center
Thu 01:16:16 PM 40.1239 -83.4669 51° Northeast 509 586 35,000  Level Indianapolis Center
Thu 01:17:18 PM 40.2136 -83.3208 51° Northeast 511 588 35,000  Level Indianapolis Center
Thu 01:18:20 PM 40.3011 -83.1744 52° Northeast 507 583 35,000  Level Indianapolis Center
Thu 01:19:22 PM 40.3892 -83.0286 52° Northeast 506 582 35,000  Level Indianapolis Center
Thu 01:20:24 PM 40.4758 -82.8839 52° Northeast 502 578 35,000  Level Indianapolis Center
Thu 01:21:25 PM 40.5625 -82.7389 52° Northeast 500 575 35,000  Level Indianapolis Center
Thu 01:22:27 PM 40.6489 -82.5933 52° Northeast 500 575 35,000  Level Indianapolis Center
Thu 01:23:29 PM 40.7469 -82.4272 52° Northeast 489 563 35,000  Level Indianapolis Center
Thu 01:24:31 PM 40.8317 -82.2833 52° Northeast 492 566 35,000  Level Indianapolis Center
Thu 01:25:46 PM 40.9164 -82.0994 59° Northeast 500 575 35,000  Level Cleveland Center
Thu 01:26:47 PM 40.9644 -81.9203 70° East 513 590 35,000  Level Cleveland Center
Thu 01:27:49 PM 41.0122 -81.7439 70° East 512 589 35,000  Level Cleveland Center
Thu 01:28:51 PM 41.0675 -81.5392 70° East 509 586 35,000  Level Cleveland Center
Thu 01:29:53 PM 41.1136 -81.3644 71° East 506 582 35,000  Level Cleveland Center
Thu 01:30:55 PM 41.1592 -81.1881 71° East 505 581 35,000  Level Cleveland Center
Thu 01:31:57 PM 41.2047 -81.0117 71° East 504 580 35,000  Level Cleveland Center
Thu 01:32:59 PM 41.2514 -80.8358 71° East 504 580 35,000  Level Cleveland Center
Thu 01:34:01 PM 41.2964 -80.6581 71° East 504 580 35,000  Level Cleveland Center
Thu 01:35:03 PM 41.3494 -80.4508 71° East 505 581 35,000  Level Cleveland Center
Thu 01:36:05 PM 41.3958 -80.2669 71° East 507 583 35,000  Level Cleveland Center
Thu 01:37:07 PM 41.4403 -80.0911 71° East 503 579 35,000  Level Cleveland Center
Thu 01:38:09 PM 41.4833 -79.9181 72° East 500 575 35,000  Level Cleveland Center
Thu 01:39:11 PM 41.5267 -79.7431 72° East 499 574 35,000  Level Cleveland Center
Thu 01:40:13 PM 41.5703 -79.5653 72° East 503 579 35,000  Level Cleveland Center
Thu 01:41:15 PM 41.6236 -79.3497 72° East 508 585 35,000  Level Cleveland Center
Thu 01:42:17 PM 41.6500 -79.1656 79° East 506 582 35,000  Level Cleveland Center
Thu 01:43:19 PM 41.6311 -78.9761 98° East 512 589 35,000  Level Cleveland Center
Thu 01:44:21 PM 41.6094 -78.7894 99° East 510 587 35,000 -194 Level Cleveland Center
Thu 01:45:23 PM 41.5878 -78.6006 99° East 511 588 34,600 -677 Descending Cleveland Center
Thu 01:46:25 PM 41.5656 -78.4117 99° East 511 588 33,600 -1,113 Descending Cleveland Center
Thu 01:47:27 PM 41.5431 -78.2236 99° East 511 588 32,300 -1,258 Descending Cleveland Center
Thu 01:48:29 PM 41.5158 -78.0036 99° East 502 578 31,000 -629 Descending Cleveland Center
Thu 01:49:31 PM 41.4911 -77.8225 100° East 498 573 31,000  Level Cleveland Center
Thu 01:50:33 PM 41.4656 -77.6381 100° East 503 579 31,000  Level Cleveland Center
Thu 01:51:35 PM 41.4392 -77.4556 101° East 503 579 31,000  Level Cleveland Center
Thu 01:52:41 PM 41.4058 -77.2325 101° East 512 589 31,000  Level New York Center
Thu 01:53:41 PM 41.3783 -77.0472 101° East 512 589 31,000 -750 Level New York Center
Thu 01:54:41 PM 41.3503 -76.8650 102° East 512 589 29,500 -1,650 Descending New York Center
Thu 01:55:41 PM 41.3139 -76.6822 105° East 512 589 27,700 -2,150 Descending New York Center
Thu 01:56:41 PM 41.2692 -76.5292 111° Southeast 500 575 25,200 -2,700 Descending New York Center
Thu 01:57:41 PM 41.2253 -76.3597 109° East 495 570 22,300 2,900 Descending New York Center
Thu 01:58:41 PM 41.1828 -76.1992 109° East 481 554 31,000 -2,150 Climbing New York Center
Thu 01:59:41 PM 41.1417 -76.0497 110° East 449 517 18,000 -7,050 Descending New York Center
Thu 02:00:41 PM 41.0989 -75.8867 109° East 429 494 16,900 -1,750 Descending New York Center
Thu 02:01:41 PM 41.0589 -75.7461 111° Southeast 417 480 14,500 -1,950 Descending New York Center
Thu 02:02:41 PM 41.0267 -75.6228 109° East 405 466 13,000 -1,100 Descending New York Center
Thu 02:03:41 PM 40.9903 -75.4908 110° East 385 443 12,300 -1,200 Descending New York Center
Thu 02:04:41 PM 40.9500 -75.3508 111° Southeast 379 436 10,600 -1,250 Descending New York Center
Thu 02:05:41 PM 40.9222 -75.2556 111° Southeast 338 389 9,800 -1,041 Descending New York Center
Thu 02:06:42 PM 40.8928 -75.1547 111° Southeast 303 349 8,500 -1,300 Descending New York Center
Thu 02:07:41 PM 40.8739 -75.0439 103° East 281 323 7,200 -756 Descending New York Center
Thu 02:08:41 PM 40.9003 -74.9439 71° East 263 303 7,000 -100 Descending New York Center
Thu 02:09:41 PM 40.9242 -74.8575 70° East 281 323 7,000  Level New York Center
Thu 02:10:41 PM 40.9550 -74.7522 69° East 281 323 7,000  Level New York Center
Thu 02:11:41 PM 40.9619 -74.6619 84° East 276 318 7,000 -50 Level New York Center
Thu 02:12:41 PM 40.9081 -74.5931 136° Southeast 244 281 6,900 -500 Descending New York Center
Thu 02:13:41 PM 40.8414 -74.5947 181° South 238 274 6,000 -519 Descending New York Center
Thu 02:14:25 PM 40.7833 -74.5833 172° South 263 303 6,000 -231 Level New York TRACON
Thu 02:15:25 PM 40.7000 -74.5833 180° South 265 305 5,600 -500 Descending New York TRACON
Thu 02:16:25 PM 40.6333 -74.5667 169° South 259 298 5,000 -300 Descending New York TRACON
Thu 02:17:25 PM 40.5667 -74.5500 169° South 268 308 5,000 -50 Level New York TRACON
Thu 02:18:25 PM 40.5000 -74.5000 150° Southeast 241 277 4,900 -632 Descending New York TRACON
Thu 02:19:19 PM 40.4667 -74.4500 131° Southeast 228 262 3,800 -950 Descending New York TRACON
Thu 02:20:25 PM 40.4667 -74.3667 90° East 215 247 3,000 -258 Descending New York TRACON
Thu 02:22:25 PM 40.5333 -74.2667 49° Northeast 173 199 3,000 -167 Level New York TRACON
Thu 02:23:25 PM 40.5833 -74.2333 27° Northeast 168 193 2,500 -750 Descending New York TRACON
Thu 02:24:25 PM 40.6167 -74.2167 21° North 157 181 1,500 -895 Descending New York TRACON
Thu 02:25:19 PM 40.6500 -74.2000 21° North 136 157 800 -778 Descending New York TRACON
Thu 02:27:00 PM 40.6833 -74.1667 102° East  Level FlightAware Approximate
Thu 02:34:00 PM 40.6925 -74.1687 102° East  Level Estimated
Thu 02:35:00 PM 40.6925 -74.1687 102° East  Level Estimated

Login

Don't have an account? Register now (free) for customized features, flight alerts, and more!